[[{"header":{"parameterUnit":"m.s-1","parameterCategory":2,"la1":30.2991,"la2":30.254,"lo1":-89.0895,"lo2":-89.0444,"dy":0.0017,"dx":0.0017,"nx":28,"ny":28,"refTime":"2024-04-19T03:00:00:Z","depth":"0","parameterNumber":2,"parameterNumberName":"U-component_of_CURRENTS"},"data":[0,0,0,0,0,0,0,0,0,0,0,0,0,0,0,0,0,0,0,0,0,0,0,0,0,0,0,0,0,0,0,0,0,0,0,0,0,0,0,0,0,0,0,0,0,0,0,0,0,0,0,0,0,0,0,0,0,0,0.222,0.2218,0,0.2116,0.2115,0.2114,0.2019,0.2018,0.2016,0.2015,0.2029,0.203,0.2032,0,0,0,0,0,0,0,0,0,0,0,0,0,0.2233,0.2235,0.222,0.2218,0.2217,0.2116,0.2115,0.2114,0.2019,0.2018,0.2016,0.2014,0.2028,0.203,0.2032,0,0,0,0,0,0,0,0,0,0,0,0,0,0.2192,0.2235,0.222,0.2155,0.2148,0.2116,0.2115,0.2114,0.202,0.2018,0.2015,0.2013,0.2028,0.203,0.2032,0.209,0,0,0.204,0.2041,0,0,0,0,0,0,0,0,0.2194,0.2192,0.2166,0.216,0.2152,0.2076,0.2124,0.2111,0.202,0.2071,0.2015,0.2012,0.2055,0.2055,0.2043,0.2091,0.2092,0.204,0.2042,0.2043,0.2044,0,0,0,0,0,0,0,0.2197,0.2195,0.2181,0.2165,0.2156,0.2096,0.2089,0.2121,0.2081,0.2067,0.2059,0.2044,0.2052,0.204,0.2043,0.2092,0.204,0.2043,0.2044,0.2045,0.2181,0.2183,0,0,0,0,0,0,0.2213,0.2199,0.2185,0.2178,0.2165,0.2098,0.209,0.2105,0.2078,0.207,0.2046,0.204,0.2037,0.204,0.2043,0.2092,0.2043,0.2045,0.2047,0.2179,0.2181,0.2183,0,0,0,0,0,0,0.2214,0.2214,0.2189,0.2181,0.2173,0.21,0.2117,0.2104,0.2084,0.206,0.2054,0.2039,0.2036,0.204,0.2077,0.2093,0.2047,0.2049,0.2176,0.2179,0.2182,0.2204,0,0,0,0,0,0,0.2215,0.2216,0.2243,0.2184,0.2174,0.2182,0.2118,0.2103,0.2077,0.2068,0.2053,0.2051,0.2034,0.2074,0.208,0.2096,0.2051,0.2173,0.2178,0.2181,0.22,0.2207,0.2213,0,0,0,0,0,0.2217,0.2281,0.2246,0.2244,0.2212,0.2183,0.2174,0.2114,0.2079,0.2087,0.2075,0.2052,0.2102,0.2078,0.2085,0.2101,0.2172,0.2176,0.2181,0.2197,0.2206,0.2213,0,0,0,0,0,0,0.233,0.2274,0.2236,0.2286,0.2234,0.2166,0.2179,0.2125,0.2118,0.2117,0.2085,0.2085,0.2125,0.2125,0.2098,0.2155,0.2132,0.2138,0.2142,0.215,0.2156,0.215,0.2053,0,0,0,0,0,0.236,0.2374,0.2307,0.2344,0.2328,0.2251,0.2234,0.2184,0.216,0.2151,0.2127,0.2129,0.2153,0.2159,0.218,0.2218,0.2225,0.2235,0.2241,0.2246,0.2249,0.2308,0.2319,0.2199,0.2199,0.2199,0,0,0.2413,0.2384,0.2394,0.2364,0.2326,0.2299,0.2238,0.2222,0.2191,0.2163,0.2148,0.216,0.2174,0.2206,0.2223,0.2202,0.2279,0.2252,0.2255,0.2255,0.2314,0.2325,0.2336,0.2202,0.2201,0.2201,0,0,0.2503,0.2503,0.2523,0.2479,0.2417,0.2363,0.2358,0.2285,0.2252,0.2245,0.222,0.2242,0.2258,0.226,0.227,0.2335,0.2319,0.2342,0.2356,0.2414,0.2424,0.2433,0.2426,0.2434,0.2334,0.2334,0.2334,0,0.256,0.2564,0.2528,0.2515,0.2469,0.2392,0.2369,0.2343,0.2281,0.2259,0.225,0.2268,0.2283,0.2314,0.2333,0.2346,0.2359,0.2318,0.242,0.2429,0.2438,0.2429,0.2438,0.2335,0.2335,0.2335,0.2335,0,0.2631,0.2618,0.2635,0.2571,0.2536,0.2513,0.2439,0.2408,0.2357,0.2309,0.2322,0.2344,0.2343,0.2362,0.2369,0.2431,0.2412,0.2428,0.2393,0.2451,0.2438,0.2447,0.2338,0.2337,0.2337,0.2336,0,0,0.2742,0.2689,0.268,0.2618,0.2544,0.2501,0.2482,0.2412,0.2366,0.236,0.2324,0.2388,0.238,0.2394,0.2406,0.2458,0.2527,0.2471,0.2473,0.2448,0.2616,0.245,0.2442,0.2567,0.257,0.2572,0.257,0,0.2773,0.275,0.2714,0.2643,0.2596,0.2515,0.248,0.2417,0.2373,0.2333,0.2367,0.236,0.2398,0.2395,0.2464,0.2512,0.2557,0.2523,0.2577,0.2577,0.2411,0.245,0.2301,0.2274,0.2578,0.258,0.2581,0,0.2805,0.2764,0.2726,0.2596,0.2572,0.2528,0.2406,0.2367,0.2327,0.2301,0.232,0.2331,0.2397,0.2429,0.2548,0.2526,0.2581,0.2622,0.2623,0.2467,0.2428,0.2275,0.2278,0.2197,0.2594,0.2592,0.2592,0,0.281,0.2742,0.2696,0.2656,0.2542,0.2495,0.2428,0.2357,0.23,0.2283,0.2256,0.2328,0.2344,0.2462,0.2545,0.2558,0.2666,0.2685,0.258,0.2566,0.2447,0.2418,0.2364,0.2786,0.2786,0.2786,0.2786,0,0.2807,0.2749,0.2688,0.2641,0.254,0.2475,0.2373,0.2318,0.2263,0.22,0.2245,0.2223,0.2365,0.2429,0.2535,0.256,0.2659,0.2578,0.2565,0.2444,0.2416,0.2344,0.231,0.2786,0.2786,0.2786,0.2786,0,0.2791,0.2772,0.2677,0.2572,0.2533,0.2449,0.2317,0.2239,0.221,0.214,0.2138,0.2154,0.2213,0.2329,0.2475,0.2492,0.2461,0.2559,0.2363,0.2326,0.2094,0.2066,0.1916,0.1886,0.2412,0.2408,0.2405,0,0.2783,0.2745,0.2624,0.2547,0.2489,0.2374,0.2282,0.2213,0.2137,0.2086,0.2049,0.2076,0.2065,0.2166,0.2221,0.2307,0.2314,0.2184,0.2179,0.2042,0.2007,0.195,0.1936,0.203,0.2024,0.2019,0.2015,0,0.2717,0.2684,0.2594,0.2463,0.2354,0.2235,0.2117,0.2063,0.1988,0.1942,0.1878,0.1875,0.191,0.1879,0.1941,0.1998,0.2001,0.2074,0.2026,0.176,0.1608,0.1584,0.2034,0.197,0.1974,0.1977,0.198,0.1982,0.2642,0.256,0.2451,0.23,0.2204,0.2079,0.1968,0.1885,0.1778,0.1685,0.1727,0.1664,0.1628,0.1662,0.1701,0.1577,0.1666,0.1529,0.1523,0.1492,0.14,0.1692,0.1553,0.1555,0.1557,0.1558,0.156,0,0.2476,0.2395,0.2278,0.2094,0.1968,0.1963,0.1823,0.1722,0.1594,0.1555,0.15,0.1362,0.1282,0.1279,0.1141,0.1054,0.1089,0.1027,0.0968,0.1005,0.1345,0.1265,0.0943,0.0943,0.0943,0.0943,0.0943,0.0943,0.2379,0.2201,0.2128,0.1882,0.1791,0.1618,0.1541,0.1448,0.1391,0.123,0.1117,0.1086,0.0957,0.0766,0.0633,0.065,0.0642,0.0527,0.0631,0.0902,0.0952,0.0999,0.0918,0.0529,0.0528,0.026,0.0258,0.0256]},{"header":{"parameterUnit":"m.s-1","parameterCategory":2,"la1":30.2991,"la2":30.254,"lo1":-89.0895,"lo2":-89.0444,"dy":0.0017,"dx":0.0017,"nx":28,"ny":28,"refTime":"2024-04-19T03:00:00:Z","depth":"0","parameterNumber":3,"parameterNumberName":"V-component_of_CURRENTS"},"data":[0,0,0,0,0,0,0,0,0,0,0,0,0,0,0,0,0,0,0,0,0,0,0,0,0,0,0,0,0,0,0,0,0,0,0,0,0,0,0,0,0,0,0,0,0,0,0,0,0,0,0,0,0,0,0,0,0,0,0.1372,0.1373,0,0.1437,0.1438,0.1438,0.1432,0.1431,0.143,0.1429,0.1396,0.1396,0.1396,0,0,0,0,0,0,0,0,0,0,0,0,0,0.1223,0.1225,0.1372,0.1373,0.1374,0.1437,0.1438,0.1438,0.1432,0.1431,0.143,0.1429,0.1396,0.1396,0.1396,0,0,0,0,0,0,0,0,0,0,0,0,0,0.1285,0.1226,0.1372,0.1381,0.1382,0.1437,0.1438,0.1439,0.1432,0.1431,0.143,0.1429,0.1396,0.1396,0.1396,0.1416,0,0,0.1395,0.1395,0,0,0,0,0,0,0,0,0.1281,0.129,0.1378,0.138,0.1382,0.1428,0.1374,0.1427,0.1432,0.141,0.1429,0.1428,0.1401,0.14,0.1411,0.1414,0.1413,0.1395,0.1395,0.1395,0.1395,0,0,0,0,0,0,0,0.1277,0.1287,0.1394,0.138,0.1382,0.1376,0.1383,0.1384,0.1406,0.1411,0.1412,0.1425,0.1401,0.1412,0.141,0.1412,0.1395,0.1395,0.1394,0.1394,0.141,0.141,0,0,0,0,0,0,0.1278,0.1283,0.1392,0.1397,0.1332,0.138,0.1388,0.1412,0.1408,0.1408,0.1426,0.1424,0.1413,0.1411,0.1409,0.1424,0.1395,0.1394,0.1394,0.1409,0.141,0.141,0,0,0,0,0,0,0.1275,0.1288,0.139,0.1343,0.1356,0.1384,0.1411,0.1414,0.1421,0.1421,0.1418,0.143,0.1412,0.141,0.1425,0.1422,0.1394,0.1394,0.1408,0.1409,0.141,0.1458,0,0,0,0,0,0,0.1271,0.1287,0.13,0.1344,0.1359,0.1416,0.1412,0.1416,0.1433,0.1431,0.1424,0.142,0.1411,0.1425,0.1424,0.1421,0.1394,0.1407,0.1409,0.141,0.1455,0.146,0.1464,0,0,0,0,0,0.1265,0.1285,0.13,0.1313,0.1378,0.1417,0.1424,0.1437,0.1434,0.1439,0.1448,0.142,0.143,0.1427,0.1425,0.1422,0.1407,0.1408,0.141,0.1453,0.1459,0.1464,0,0,0,0,0,0,0.1227,0.1289,0.1305,0.1344,0.1377,0.1417,0.1422,0.1439,0.1453,0.1444,0.1442,0.144,0.145,0.1434,0.143,0.1429,0.1408,0.1409,0.1441,0.1447,0.1451,0.1455,0.1393,0,0,0,0,0,0.1229,0.1257,0.1313,0.1341,0.1355,0.139,0.1407,0.142,0.1442,0.1446,0.1453,0.145,0.1457,0.1451,0.1453,0.1459,0.144,0.145,0.1455,0.1458,0.1461,0.1457,0.1461,0.1415,0.1415,0.1415,0,0,0.1224,0.1259,0.1277,0.1334,0.1355,0.1377,0.1395,0.1418,0.1439,0.144,0.1462,0.1471,0.1465,0.1476,0.1476,0.1459,0.1458,0.146,0.1464,0.1464,0.1458,0.1463,0.1467,0.1416,0.1415,0.1415,0,0,0.1215,0.1256,0.127,0.1294,0.1333,0.1363,0.137,0.1416,0.1435,0.1469,0.1475,0.1492,0.1497,0.1501,0.15,0.1528,0.1489,0.1517,0.1535,0.1532,0.1535,0.1538,0.1507,0.1507,0.1511,0.1511,0.1511,0,0.1205,0.1231,0.1278,0.1288,0.1303,0.1354,0.1363,0.14,0.1449,0.1473,0.1473,0.1517,0.1508,0.1532,0.1543,0.1537,0.1522,0.1517,0.1538,0.154,0.1543,0.151,0.1509,0.1513,0.1513,0.1513,0.1512,0,0.1207,0.1216,0.1221,0.1257,0.1284,0.1297,0.1356,0.1393,0.1428,0.1469,0.1516,0.1536,0.1559,0.1556,0.1559,0.1575,0.1554,0.1552,0.1525,0.155,0.1513,0.1512,0.1517,0.1516,0.1515,0.1515,0,0,0.1214,0.122,0.1222,0.1212,0.1263,0.1283,0.1332,0.1393,0.143,0.1485,0.1534,0.1562,0.1591,0.1593,0.1603,0.1602,0.1602,0.1586,0.1585,0.1556,0.1576,0.1534,0.1528,0.1608,0.1608,0.1609,0.1538,0,0.1196,0.1178,0.1209,0.1202,0.1192,0.1255,0.1299,0.1363,0.1428,0.1495,0.1546,0.1589,0.16,0.1616,0.1626,0.1622,0.1603,0.162,0.1555,0.1552,0.1514,0.1527,0.1493,0.1426,0.1537,0.1536,0.1536,0,0.1195,0.1172,0.1144,0.1152,0.1161,0.1179,0.1255,0.1304,0.1418,0.1471,0.1545,0.16,0.1644,0.1638,0.164,0.1655,0.1614,0.1597,0.1594,0.1538,0.1508,0.1421,0.1418,0.1371,0.1533,0.1534,0.1534,0,0.115,0.114,0.1104,0.1103,0.1126,0.1143,0.1184,0.1287,0.1344,0.146,0.1515,0.159,0.1627,0.162,0.1619,0.1626,0.1601,0.1597,0.1511,0.1506,0.1455,0.1446,0.1401,0.1563,0.1563,0.1564,0.1564,0,0.1116,0.1091,0.107,0.1042,0.1033,0.1082,0.1122,0.1191,0.1302,0.1377,0.1492,0.1568,0.1626,0.1647,0.162,0.1571,0.1596,0.1513,0.1492,0.1468,0.1461,0.14,0.1404,0.1561,0.1562,0.1562,0.1563,0,0.1063,0.1052,0.1,0.0991,0.0998,0.0989,0.1071,0.112,0.1228,0.1333,0.1373,0.1539,0.158,0.1604,0.1589,0.1557,0.149,0.147,0.143,0.1406,0.1287,0.1296,0.1275,0.1282,0.1368,0.1366,0.1365,0,0.1029,0.0986,0.0942,0.0918,0.0907,0.0918,0.0952,0.1064,0.1138,0.132,0.1375,0.147,0.1567,0.1547,0.1504,0.1436,0.1427,0.1328,0.1333,0.1274,0.1268,0.131,0.1322,0.1273,0.1271,0.1269,0.1268,0,0.0939,0.092,0.0869,0.0826,0.0824,0.0856,0.0918,0.0969,0.1128,0.1227,0.1378,0.1467,0.1504,0.1474,0.1393,0.1353,0.1322,0.1293,0.1252,0.1207,0.1232,0.123,0.1308,0.1255,0.1256,0.1257,0.1258,0.1258,0.0869,0.0815,0.0758,0.0725,0.0744,0.0809,0.0849,0.0947,0.1061,0.1238,0.1331,0.1447,0.1411,0.1338,0.1295,0.115,0.1222,0.1084,0.1101,0.1149,0.1161,0.1198,0.1115,0.1115,0.1115,0.1116,0.1116,0,0.0758,0.072,0.0677,0.0657,0.0689,0.0732,0.0844,0.091,0.1034,0.1186,0.1311,0.1307,0.1242,0.1181,0.1009,0.0951,0.1002,0.0923,0.0974,0.0997,0.1024,0.1024,0.0893,0.0893,0.0893,0.0893,0.0893,0.0893,0.0695,0.0609,0.0594,0.0604,0.0632,0.0707,0.0777,0.0884,0.1005,0.1139,0.1186,0.1239,0.1148,0.0954,0.0825,0.0818,0.0847,0.0836,0.0871,0.0866,0.0882,0.0898,0.0896,0.0741,0.0741,0.0848,0.0849,0.0849]}],[{"header":{"parameterUnit":"m.s-1","parameterCategory":2,"la1":30.2991,"la2":30.254,"lo1":-89.0895,"lo2":-89.0444,"dy":0.0017,"dx":0.0017,"nx":28,"ny":28,"refTime":"2024-04-19T03:00:00:Z","depth":"2","parameterNumber":2,"parameterNumberName":"U-component_of_CURRENTS"},"data":[0,0,0,0,0,0,0,0,0,0,0,0,0,0,0,0,0,0,0,0,0,0,0,0,0,0,0,0,0,0,0,0,0,0,0,0,0,0,0,0,0,0,0,0,0,0,0,0,0,0,0,0,0,0,0,0,0,0,0.0643,0.0644,0,0.0781,0.0783,0.0785,0.0922,0.0923,0.0924,0.0926,0.118,0.1185,0.119,0,0,0,0,0,0,0,0,0,0,0,0,0,0.0629,0.0628,0.0643,0.0644,0.0645,0.0781,0.0783,0.0785,0.0922,0.0923,0.0925,0.0926,0.1178,0.1184,0.1191,0,0,0,0,0,0,0,0,0,0,0,0,0,0.0692,0.0628,0.0642,0.0725,0.0734,0.078,0.0783,0.0786,0.0921,0.0923,0.0925,0.0927,0.1176,0.1184,0.1192,0.1204,0,0,0.1217,0.1221,0,0,0,0,0,0,0,0,0.0689,0.0693,0.0712,0.072,0.0729,0.0831,0.0871,0.093,0.0921,0.0856,0.0926,0.0928,0.1069,0.1086,0.1114,0.1216,0.1227,0.1218,0.1223,0.1227,0.1229,0,0,0,0,0,0,0,0.0684,0.0689,0.0703,0.0713,0.0723,0.0801,0.0811,0.0883,0.0956,0.0862,0.087,0.0877,0.1075,0.1105,0.1121,0.123,0.1218,0.1225,0.123,0.1233,0.1453,0.1453,0,0,0,0,0,0,0.0646,0.0684,0.0698,0.0706,0.0707,0.0798,0.0811,0.0801,0.0953,0.0975,0.0875,0.0882,0.109,0.1111,0.113,0.1238,0.1226,0.1234,0.1239,0.1452,0.1453,0.1454,0,0,0,0,0,0,0.0645,0.0645,0.0693,0.0696,0.0706,0.0795,0.0784,0.0802,0.086,0.0961,0.0987,0.0915,0.1092,0.1119,0.121,0.1245,0.1238,0.1246,0.1451,0.1452,0.1453,0.1398,0,0,0,0,0,0,0.0644,0.0644,0.0642,0.0692,0.0704,0.0736,0.0782,0.0804,0.0856,0.0868,0.1003,0.1028,0.1096,0.1196,0.1218,0.1257,0.1252,0.145,0.1451,0.1453,0.1399,0.1397,0.1396,0,0,0,0,0,0.0643,0.0632,0.064,0.0643,0.0692,0.0736,0.0751,0.0825,0.0856,0.0884,0.0967,0.1025,0.1222,0.1203,0.1228,0.1271,0.1449,0.1451,0.1453,0.14,0.1398,0.1396,0,0,0,0,0,0,0.0644,0.0645,0.0656,0.0652,0.0693,0.0757,0.0789,0.0828,0.0914,0.0936,0.103,0.106,0.1158,0.1212,0.1188,0.1337,0.1348,0.1355,0.1299,0.1298,0.1297,0.1257,0.1259,0,0,0,0,0,0.063,0.0613,0.0645,0.0644,0.0661,0.0724,0.0755,0.0801,0.087,0.0912,0.1,0.1095,0.1179,0.1235,0.1318,0.139,0.1402,0.1436,0.1434,0.1432,0.1417,0.1457,0.1456,0.146,0.146,0.146,0,0,0.0623,0.0628,0.0617,0.0641,0.0681,0.0713,0.0751,0.0799,0.0839,0.0925,0.1019,0.1097,0.1196,0.1286,0.1335,0.134,0.1435,0.1435,0.1433,0.1418,0.1458,0.1458,0.1457,0.1461,0.1461,0.1461,0,0,0.0613,0.0612,0.0603,0.0633,0.0681,0.0718,0.0729,0.0801,0.0852,0.0925,0.1006,0.1089,0.1219,0.1295,0.1348,0.1384,0.1425,0.1426,0.1392,0.1432,0.1431,0.143,0.1422,0.1421,0.1426,0.1426,0.1426,0,0.0606,0.0606,0.0615,0.0634,0.0664,0.0715,0.0744,0.0791,0.0889,0.0933,0.0953,0.1139,0.122,0.1326,0.1335,0.1383,0.1389,0.139,0.1426,0.1427,0.1427,0.1419,0.1418,0.1423,0.1424,0.1424,0.1424,0,0.0604,0.0613,0.0619,0.0644,0.0679,0.0712,0.0765,0.082,0.0875,0.0928,0.1039,0.113,0.1246,0.1282,0.1316,0.1379,0.1376,0.1416,0.1421,0.1423,0.1414,0.1415,0.142,0.1421,0.1421,0.1422,0,0,0.0564,0.0602,0.0609,0.063,0.0691,0.0719,0.0777,0.085,0.0898,0.0979,0.1051,0.1163,0.1214,0.1274,0.1342,0.1354,0.1352,0.1371,0.1375,0.1343,0.1397,0.121,0.1193,0.1397,0.1398,0.1398,0.138,0,0.0568,0.0593,0.0619,0.0662,0.0687,0.0747,0.0793,0.0865,0.0932,0.1013,0.1095,0.1191,0.1214,0.1273,0.1292,0.1366,0.1355,0.135,0.1416,0.1417,0.1236,0.1188,0.1166,0.1131,0.1381,0.1381,0.1381,0,0.0571,0.0588,0.0625,0.0676,0.0693,0.0732,0.0825,0.0873,0.0979,0.1033,0.1125,0.1197,0.1276,0.1273,0.135,0.1347,0.135,0.1364,0.1366,0.1207,0.1231,0.1178,0.1123,0.1382,0.1382,0.1382,0.1382,0,0.0557,0.0597,0.0628,0.0648,0.0711,0.0754,0.0799,0.0894,0.0937,0.1057,0.1097,0.1211,0.1279,0.1311,0.1349,0.1359,0.1383,0.1425,0.1243,0.1231,0.1229,0.1212,0.1421,0.1421,0.1421,0.1422,0.1422,0,0.0556,0.0586,0.0626,0.0648,0.0698,0.0745,0.0811,0.0877,0.0957,0.1006,0.1111,0.1161,0.1285,0.1326,0.1343,0.1278,0.1394,0.1199,0.1204,0.1203,0.1186,0.1432,0.1434,0.1421,0.1421,0.1421,0.1421,0,0.0559,0.0578,0.0621,0.0679,0.0698,0.0743,0.0807,0.0839,0.0919,0.0986,0.102,0.114,0.117,0.1231,0.1291,0.1251,0.1228,0.1169,0.1118,0.1112,0.1046,0.1046,0.096,0.0953,0.0947,0.0943,0.0938,0,0.0573,0.0586,0.0643,0.0665,0.0702,0.0754,0.0775,0.0834,0.0854,0.0957,0.0973,0.1032,0.1028,0.1017,0.0986,0.0932,0.1053,0.0868,0.0853,0.098,0.0996,0.1005,0.1012,0.0851,0.0846,0.0843,0.084,0,0.0604,0.0623,0.0658,0.0681,0.0708,0.0716,0.0748,0.075,0.0807,0.0846,0.0886,0.0884,0.0834,0.0777,0.0677,0.0655,0.0873,0.0776,0.0986,0.0924,0.0862,0.0882,0.0897,0.0807,0.081,0.0812,0.0814,0.0815,0.0644,0.0669,0.069,0.0704,0.0708,0.0674,0.067,0.0672,0.0676,0.0705,0.0745,0.0723,0.0699,0.0489,0.0463,0.0468,0.0486,0.0541,0.0562,0.0584,0.0527,0.0452,0.0309,0.031,0.031,0.031,0.0311,0,0.0694,0.0706,0.0703,0.0692,0.0645,0.0668,0.0636,0.0606,0.0582,0.0596,0.0592,0.0491,0.0394,0.0407,0.0324,0.0241,0.0331,0.0281,0.0465,0.0494,0.052,0.0471,0.0234,0.0234,0.0234,0.0234,0,0,0.0725,0.0727,0.0686,0.0611,0.0607,0.0549,0.0529,0.0493,0.0477,0.0426,0.0421,0.0381,0.037,0.0311,0.0269,0.027,0.0397,0.0255,0.0313,0.056,0.0588,0.0652,0.0599,0,0,0,0,0]},{"header":{"parameterUnit":"m.s-1","parameterCategory":2,"la1":30.2991,"la2":30.254,"lo1":-89.0895,"lo2":-89.0444,"dy":0.0017,"dx":0.0017,"nx":28,"ny":28,"refTime":"2024-04-19T03:00:00:Z","depth":"2","parameterNumber":3,"parameterNumberName":"V-component_of_CURRENTS"},"data":[0,0,0,0,0,0,0,0,0,0,0,0,0,0,0,0,0,0,0,0,0,0,0,0,0,0,0,0,0,0,0,0,0,0,0,0,0,0,0,0,0,0,0,0,0,0,0,0,0,0,0,0,0,0,0,0,0,0,0.0061,0.0062,0,0.0098,0.0098,0.0098,0.0118,0.0118,0.0118,0.0118,0.0217,0.0219,0.0221,0,0,0,0,0,0,0,0,0,0,0,0,0,-0.0007,-0.0006,0.0061,0.0062,0.0062,0.0098,0.0098,0.0098,0.0117,0.0118,0.0118,0.0118,0.0216,0.0219,0.0222,0,0,0,0,0,0,0,0,0,0,0,0,0,0.0023,-0.0006,0.0061,0.0078,0.008,0.0097,0.0098,0.0098,0.0117,0.0118,0.0118,0.0118,0.0215,0.0218,0.0222,0.0237,0,0,0.0233,0.0235,0,0,0,0,0,0,0,0,0.0021,0.0025,0.0075,0.0077,0.0079,0.0105,0.011,0.0148,0.0117,0.0101,0.0118,0.0119,0.0186,0.0192,0.0194,0.0241,0.0246,0.0233,0.0235,0.0237,0.0238,0,0,0,0,0,0,0,0.0019,0.0024,0.0073,0.0076,0.0078,0.0079,0.0083,0.0117,0.0141,0.0102,0.0104,0.0112,0.0188,0.0191,0.0197,0.0247,0.0233,0.0236,0.0239,0.024,0.0299,0.0298,0,0,0,0,0,0,0.002,0.0022,0.0072,0.0075,0.0053,0.008,0.0085,0.0095,0.0139,0.0146,0.0112,0.0113,0.0184,0.0193,0.0201,0.0242,0.0237,0.024,0.0242,0.0299,0.0299,0.0298,0,0,0,0,0,0,0.0018,0.0024,0.0071,0.0051,0.0057,0.0081,0.0092,0.0095,0.011,0.0146,0.0154,0.0124,0.0185,0.0196,0.0217,0.0246,0.0242,0.0245,0.03,0.0299,0.0298,0.0313,0,0,0,0,0,0,0.0016,0.0023,0.0031,0.0051,0.0058,0.0094,0.0092,0.0096,0.0114,0.0116,0.0159,0.0167,0.0186,0.0211,0.0221,0.0251,0.0248,0.0301,0.03,0.0299,0.0313,0.0312,0.0312,0,0,0,0,0,0.0014,0.0032,0.0031,0.0037,0.0068,0.0095,0.0099,0.0115,0.0115,0.0128,0.0134,0.0167,0.0211,0.0214,0.0225,0.0257,0.0301,0.03,0.0299,0.0313,0.0313,0.0312,0,0,0,0,0,0,0.0003,0.0037,0.0036,0.0061,0.0079,0.01,0.0115,0.012,0.0135,0.0137,0.016,0.0169,0.0203,0.0214,0.0216,0.0264,0.0262,0.0263,0.0269,0.0269,0.0269,0.0261,0.0251,0,0,0,0,0,0.0003,0.0027,0.005,0.0068,0.008,0.0095,0.0107,0.0119,0.0134,0.0141,0.0164,0.0182,0.0203,0.0222,0.0244,0.0272,0.0253,0.0296,0.0295,0.0295,0.0292,0.0249,0.0245,0.0294,0.0294,0.0294,0,0,-0.0002,0.0023,0.0033,0.0068,0.0081,0.0112,0.0104,0.013,0.0151,0.0151,0.0183,0.0189,0.0208,0.0235,0.0252,0.0252,0.0273,0.0294,0.0294,0.0291,0.0247,0.0243,0.0238,0.0293,0.0293,0.0293,0,0,0.002,0.0028,0.0062,0.0084,0.0116,0.0126,0.0136,0.016,0.0167,0.0188,0.019,0.0196,0.0239,0.0247,0.0259,0.0266,0.0272,0.0283,0.0283,0.0242,0.0237,0.0233,0.0215,0.0209,0.0284,0.0284,0.0284,0,0.0014,0.0063,0.0073,0.0116,0.0139,0.0136,0.0176,0.0182,0.0206,0.0213,0.0203,0.0229,0.0243,0.0269,0.026,0.027,0.0246,0.0291,0.0241,0.0237,0.0233,0.0215,0.0208,0.0284,0.0284,0.0284,0.0284,0,0.0069,0.0105,0.0126,0.0178,0.02,0.0231,0.0245,0.026,0.0258,0.0261,0.0276,0.0264,0.0284,0.0284,0.0274,0.0263,0.0258,0.0247,0.0246,0.0229,0.0211,0.0204,0.0285,0.0285,0.0285,0.0284,0,0,0.007,0.0149,0.0158,0.0191,0.0237,0.0261,0.0292,0.032,0.0344,0.033,0.0354,0.0341,0.0324,0.0331,0.032,0.0266,0.0213,0.0237,0.0235,0.0225,0.0129,0.0186,0.0184,0.0186,0.0185,0.0183,0.0134,0,0.0112,0.0194,0.0227,0.0293,0.0334,0.0347,0.0378,0.0396,0.0401,0.0419,0.0381,0.0401,0.0348,0.0359,0.0295,0.0248,0.0192,0.0228,0.0142,0.014,0.0197,0.0177,0.0159,0.0118,0.0127,0.0126,0.0125,0,0.0166,0.0214,0.0283,0.0357,0.0376,0.0404,0.0453,0.0485,0.05,0.0505,0.0496,0.0481,0.0438,0.0379,0.0263,0.0286,0.0202,0.0138,0.0135,0.0177,0.0184,0.0133,0.0104,0.0113,0.0114,0.0115,0.0116,0,0.0167,0.0259,0.031,0.0334,0.0407,0.0432,0.0467,0.05,0.0531,0.0559,0.0582,0.0534,0.0524,0.0399,0.028,0.0267,0.0134,0.0114,0.0082,0.0086,0.0049,0.0054,-0.0,-0.0,-0.0,0.0,0.0,0,0.0207,0.025,0.0308,0.0334,0.0386,0.0441,0.0492,0.0527,0.058,0.062,0.0619,0.0636,0.0517,0.0442,0.0305,0.0189,0.016,0.0079,0.0072,0.0057,0.0062,0.0039,0.0045,-0.0002,-0.0001,-0.0001,-0.0001,0,0.0199,0.0245,0.0296,0.0363,0.0384,0.0413,0.0497,0.0539,0.0602,0.0657,0.0673,0.0699,0.0623,0.05,0.0328,0.0252,0.0117,0.0072,0.0083,0.0079,0.009,0.0096,0.0048,0.0049,0.005,0.0051,0.0052,0,0.0204,0.0229,0.0285,0.03,0.0324,0.038,0.0423,0.052,0.0573,0.0687,0.071,0.0704,0.0659,0.0484,0.035,0.0169,0.013,0.0088,0.0061,0.0095,0.0092,0.0096,0.0101,0.0012,0.0012,0.0013,0.0013,0,0.0194,0.0199,0.0229,0.0254,0.029,0.0357,0.0431,0.0485,0.0609,0.0677,0.075,0.073,0.0614,0.0459,0.029,0.0177,0.0127,0.0096,0.0098,0.0027,0.0063,0.0061,0.0065,0.0017,0.0016,0.0016,0.0016,0.0016,0.016,0.016,0.0181,0.0202,0.0254,0.0329,0.0377,0.048,0.0582,0.069,0.0691,0.0655,0.0532,0.0291,0.0194,0.0155,0.0134,0.0085,0.0082,0.0078,0.0107,0.0146,0.0121,0.0121,0.0121,0.0121,0.0122,0,0.0114,0.012,0.0134,0.0175,0.0222,0.0258,0.0379,0.0448,0.0559,0.0629,0.0645,0.0485,0.0334,0.0242,0.017,0.0112,0.0084,0.0117,0.0067,0.0063,0.006,0.0087,0.0095,0.0095,0.0095,0.0096,0,0,0.0094,0.0082,0.0087,0.0133,0.0163,0.0228,0.0289,0.0415,0.0491,0.0559,0.0543,0.0419,0.0305,0.023,0.0152,0.0143,0.0128,0.0147,0.0167,0.0113,0.0111,0.0033,0.0071,0,0,0,0,0]}],[{"header":{"parameterUnit":"m.s-1","parameterCategory":2,"la1":30.2991,"la2":30.254,"lo1":-89.0895,"lo2":-89.0444,"dy":0.0017,"dx":0.0017,"nx":28,"ny":28,"refTime":"2024-04-19T03:00:00:Z","depth":"4","parameterNumber":2,"parameterNumberName":"U-component_of_CURRENTS"},"data":[0,0,0,0,0,0,0,0,0,0,0,0,0,0,0,0,0,0,0,0,0,0,0,0,0,0,0,0,0,0,0,0,0,0,0,0,0,0,0,0,0,0,0,0,0,0,0,0,0,0,0,0,0,0,0,0,0,0,-0.0524,-0.0524,0,-0.0551,-0.0551,-0.0551,-0.0522,-0.0521,-0.052,-0.0519,-0.056,-0.0562,-0.0564,0,0,0,0,0,0,0,0,0,0,0,0,0,-0.0475,-0.0476,-0.0524,-0.0524,-0.0525,-0.0551,-0.0551,-0.0551,-0.0522,-0.0521,-0.052,-0.0519,-0.056,-0.0562,-0.0564,0,0,0,0,0,0,0,0,0,0,0,0,0,-0.0495,-0.0476,-0.0523,-0.0516,-0.0516,-0.0551,-0.0551,-0.0551,-0.0522,-0.0521,-0.052,-0.0519,-0.0559,-0.0562,-0.0564,-0.0606,0,0,-0.0573,-0.0574,0,0,0,0,0,0,0,0,-0.0494,-0.0497,-0.0516,-0.0517,-0.0516,-0.0535,-0.0549,-0.0572,-0.0522,-0.0516,-0.0519,-0.0518,-0.0556,-0.0559,-0.0562,-0.0608,-0.061,-0.0573,-0.0575,-0.0576,-0.0577,0,0,0,0,0,0,0,-0.0493,-0.0496,-0.0531,-0.0517,-0.0517,-0.0522,-0.0523,-0.0553,-0.054,-0.0517,-0.0515,-0.0524,-0.0556,-0.0559,-0.0563,-0.0611,-0.0573,-0.0576,-0.0577,-0.0578,-0.0682,-0.0683,0,0,0,0,0,0,-0.0496,-0.0494,-0.053,-0.0532,-0.0506,-0.0524,-0.0525,-0.0527,-0.054,-0.0541,-0.0525,-0.0523,-0.0555,-0.056,-0.0564,-0.057,-0.0576,-0.0579,-0.058,-0.0681,-0.0682,-0.0683,0,0,0,0,0,0,-0.0495,-0.0499,-0.0529,-0.0517,-0.0521,-0.0526,-0.0529,-0.0529,-0.0514,-0.0547,-0.0548,-0.0509,-0.0554,-0.056,-0.0579,-0.0573,-0.058,-0.0582,-0.0679,-0.0681,-0.0682,-0.0612,0,0,0,0,0,0,-0.0493,-0.0498,-0.0515,-0.0517,-0.0522,-0.054,-0.0531,-0.053,-0.0524,-0.052,-0.0534,-0.0538,-0.0554,-0.0574,-0.0581,-0.0577,-0.0585,-0.0678,-0.068,-0.0682,-0.0613,-0.0611,-0.0609,0,0,0,0,0,-0.0492,-0.0511,-0.0516,-0.0521,-0.0541,-0.054,-0.0543,-0.054,-0.0524,-0.052,-0.0528,-0.0536,-0.0593,-0.0577,-0.0585,-0.0582,-0.0677,-0.0679,-0.0682,-0.0613,-0.0611,-0.0609,0,0,0,0,0,0,-0.0491,-0.0511,-0.0515,-0.0538,-0.0537,-0.0536,-0.0548,-0.0532,-0.0535,-0.0527,-0.0544,-0.0549,-0.0566,-0.0594,-0.0576,-0.0623,-0.0639,-0.0643,-0.0585,-0.0583,-0.0581,-0.0564,-0.0587,0,0,0,0,0,-0.0504,-0.0528,-0.0531,-0.0549,-0.0551,-0.0545,-0.0549,-0.0533,-0.0533,-0.0531,-0.0534,-0.0557,-0.0589,-0.0597,-0.0628,-0.065,-0.0677,-0.066,-0.0658,-0.0655,-0.0651,-0.0708,-0.071,-0.0691,-0.0691,-0.0691,0,0,-0.0511,-0.0526,-0.054,-0.0553,-0.0556,-0.0551,-0.0542,-0.0534,-0.0523,-0.054,-0.0527,-0.0547,-0.0595,-0.0615,-0.0626,-0.0631,-0.0671,-0.0658,-0.0656,-0.0653,-0.0711,-0.0712,-0.0714,-0.0693,-0.0692,-0.0692,0,0,-0.0524,-0.0545,-0.0562,-0.0561,-0.0562,-0.0556,-0.0546,-0.0527,-0.0515,-0.0509,-0.0525,-0.0544,-0.0571,-0.0607,-0.0632,-0.0648,-0.066,-0.065,-0.062,-0.0675,-0.0677,-0.0678,-0.0684,-0.0687,-0.0647,-0.0647,-0.0647,0,-0.0533,-0.055,-0.0564,-0.0568,-0.0564,-0.0551,-0.0538,-0.0535,-0.0516,-0.051,-0.0497,-0.0545,-0.0576,-0.0622,-0.0614,-0.0641,-0.065,-0.0615,-0.0669,-0.0672,-0.0675,-0.0681,-0.0685,-0.0644,-0.0644,-0.0644,-0.0645,0,-0.0539,-0.0558,-0.0563,-0.0567,-0.056,-0.055,-0.0537,-0.0519,-0.0495,-0.0488,-0.05,-0.0538,-0.0558,-0.0581,-0.0592,-0.0629,-0.0619,-0.0657,-0.0664,-0.0672,-0.0678,-0.0683,-0.0639,-0.064,-0.0641,-0.0642,0,0,-0.0535,-0.0566,-0.0569,-0.0566,-0.0552,-0.054,-0.0525,-0.051,-0.0492,-0.0488,-0.0479,-0.0527,-0.0518,-0.0548,-0.0573,-0.0618,-0.0631,-0.0623,-0.0627,-0.0607,-0.0702,-0.0612,-0.0609,-0.0664,-0.0665,-0.0666,-0.0685,0,-0.0531,-0.0558,-0.0556,-0.0546,-0.0547,-0.0522,-0.0504,-0.0485,-0.0471,-0.0461,-0.0505,-0.0503,-0.0517,-0.0503,-0.0553,-0.0626,-0.0646,-0.0619,-0.0716,-0.0719,-0.0622,-0.0614,-0.0671,-0.0689,-0.0691,-0.0692,-0.0692,0,-0.052,-0.0545,-0.0556,-0.0534,-0.0525,-0.0494,-0.0452,-0.0428,-0.0426,-0.041,-0.042,-0.0439,-0.0489,-0.0499,-0.0609,-0.0581,-0.0615,-0.0673,-0.0676,-0.0622,-0.064,-0.0693,-0.0702,-0.0701,-0.0701,-0.07,-0.0699,0,-0.051,-0.0525,-0.0539,-0.0536,-0.0519,-0.0479,-0.043,-0.0401,-0.038,-0.0357,-0.0353,-0.0406,-0.0431,-0.0506,-0.0592,-0.0588,-0.072,-0.0744,-0.0696,-0.0689,-0.0794,-0.0793,-0.0806,-0.0806,-0.0806,-0.0805,-0.0805,0,-0.0492,-0.05,-0.053,-0.053,-0.0493,-0.0452,-0.0387,-0.0348,-0.0314,-0.0317,-0.0307,-0.0344,-0.0433,-0.0517,-0.0585,-0.0646,-0.0711,-0.0675,-0.0692,-0.0761,-0.0756,-0.0796,-0.0794,-0.0806,-0.0806,-0.0806,-0.0806,0,-0.047,-0.0508,-0.0528,-0.0519,-0.049,-0.045,-0.0343,-0.0307,-0.0262,-0.0271,-0.0257,-0.0304,-0.0376,-0.0464,-0.0598,-0.0626,-0.0706,-0.0707,-0.0737,-0.0758,-0.063,-0.0625,-0.0638,-0.0635,-0.0632,-0.063,-0.0629,0,-0.0461,-0.0481,-0.0519,-0.051,-0.0488,-0.0416,-0.0355,-0.0278,-0.0259,-0.0277,-0.0304,-0.0335,-0.0377,-0.0469,-0.0567,-0.0635,-0.0647,-0.066,-0.066,-0.06,-0.0615,-0.0614,-0.0613,-0.0625,-0.0624,-0.0623,-0.0623,0,-0.0442,-0.0483,-0.051,-0.05,-0.0453,-0.04,-0.0314,-0.0295,-0.0254,-0.0269,-0.029,-0.0306,-0.0377,-0.0439,-0.0461,-0.0543,-0.0644,-0.0635,-0.064,-0.064,-0.0584,-0.0602,-0.0603,-0.0614,-0.0615,-0.0616,-0.0617,0,-0.0437,-0.0457,-0.0499,-0.0472,-0.0433,-0.0361,-0.0322,-0.0275,-0.0236,-0.026,-0.0299,-0.0339,-0.0388,-0.0394,-0.0467,-0.0471,-0.0472,-0.048,-0.0494,-0.0504,-0.0455,-0.0364,-0.0328,0,0,0,0,0,-0.0419,-0.0427,-0.0432,-0.0411,-0.0375,-0.0338,-0.0291,-0.027,-0.0283,-0.0274,-0.0257,-0.0307,-0.0326,-0.0365,-0.0343,-0.0435,-0.0493,-0.0413,-0.0512,-0.0567,-0.0576,-0.0533,0,0,0,0,0,0,-0.0403,-0.0428,-0.0437,-0.036,-0.032,-0.0256,-0.0227,-0.024,-0.0221,-0.0252,-0.0253,-0.0291,-0.0311,-0.0325,-0.0339,-0.0351,-0.0407,-0.0442,-0.0441,-0.0561,-0.057,-0.0578,-0.0537,0,0,0,0,0]},{"header":{"parameterUnit":"m.s-1","parameterCategory":2,"la1":30.2991,"la2":30.254,"lo1":-89.0895,"lo2":-89.0444,"dy":0.0017,"dx":0.0017,"nx":28,"ny":28,"refTime":"2024-04-19T03:00:00:Z","depth":"4","parameterNumber":3,"parameterNumberName":"V-component_of_CURRENTS"},"data":[0,0,0,0,0,0,0,0,0,0,0,0,0,0,0,0,0,0,0,0,0,0,0,0,0,0,0,0,0,0,0,0,0,0,0,0,0,0,0,0,0,0,0,0,0,0,0,0,0,0,0,0,0,0,0,0,0,0,0.0065,0.0065,0,0.0017,0.0016,0.0015,-0.0058,-0.0059,-0.006,-0.0061,-0.0102,-0.0102,-0.0102,0,0,0,0,0,0,0,0,0,0,0,0,0,0.0059,0.0059,0.0065,0.0065,0.0064,0.0017,0.0016,0.0015,-0.0058,-0.0059,-0.006,-0.0061,-0.0102,-0.0102,-0.0102,0,0,0,0,0,0,0,0,0,0,0,0,0,0.0038,0.0059,0.0065,0.0025,0.0021,0.0017,0.0016,0.0015,-0.0057,-0.0059,-0.006,-0.0062,-0.0102,-0.0102,-0.0103,-0.0075,0,0,-0.0103,-0.0104,0,0,0,0,0,0,0,0,0.0039,0.0038,0.0031,0.0028,0.0024,-0.0013,-0.0001,-0.0014,-0.0057,-0.0031,-0.0061,-0.0062,-0.0068,-0.0071,-0.0082,-0.0077,-0.0079,-0.0103,-0.0104,-0.0104,-0.0104,0,0,0,0,0,0,0,0.0041,0.0039,0.0042,0.0031,0.0027,-0.0002,-0.0007,-0.0004,-0.0043,-0.0034,-0.0038,-0.0037,-0.0071,-0.0082,-0.0084,-0.0079,-0.0103,-0.0104,-0.0104,-0.0104,-0.0105,-0.0104,0,0,0,0,0,0,0.0058,0.0041,0.0044,0.0041,0.0032,-0.0,-0.0006,-0.0002,-0.0044,-0.0051,-0.0036,-0.004,-0.0081,-0.0083,-0.0085,-0.0104,-0.0104,-0.0104,-0.0104,-0.0105,-0.0105,-0.0104,0,0,0,0,0,0,0.0058,0.0058,0.0046,0.0042,0.0039,0.0002,0.0006,-0.0003,-0.0037,-0.0045,-0.0053,-0.0064,-0.0082,-0.0085,-0.0104,-0.0104,-0.0104,-0.0104,-0.0105,-0.0105,-0.0104,-0.0109,0,0,0,0,0,0,0.0058,0.0059,0.0059,0.0044,0.004,0.0034,0.0007,-0.0002,-0.0031,-0.0038,-0.0071,-0.0075,-0.0083,-0.0104,-0.0105,-0.0105,-0.0105,-0.0105,-0.0105,-0.0105,-0.0109,-0.0109,-0.0109,0,0,0,0,0,0.0058,0.0063,0.0059,0.0059,0.0044,0.0035,0.0029,-0.0005,-0.0031,-0.0043,-0.007,-0.0075,-0.0102,-0.0104,-0.0105,-0.0105,-0.0105,-0.0105,-0.0105,-0.0109,-0.0109,-0.0109,0,0,0,0,0,0,0.0053,0.0056,0.0051,0.0055,0.0044,0.0023,0.001,-0.0012,-0.0044,-0.0058,-0.0076,-0.0082,-0.0095,-0.0098,-0.0099,-0.0103,-0.0103,-0.0102,-0.0106,-0.0106,-0.0106,-0.0115,-0.0105,0,0,0,0,0,0.0058,0.0063,0.0059,0.006,0.0056,0.003,0.0018,-0.0004,-0.0027,-0.0045,-0.0067,-0.0084,-0.0088,-0.0098,-0.0101,-0.0105,-0.009,-0.0104,-0.0104,-0.0104,-0.0112,-0.008,-0.0078,-0.0103,-0.0103,-0.0103,0,0,0.0056,0.0059,0.006,0.006,0.0046,0.0032,0.0017,-0.0003,-0.0027,-0.004,-0.0083,-0.0083,-0.0088,-0.0096,-0.0101,-0.0104,-0.0087,-0.0104,-0.0104,-0.0112,-0.0079,-0.0077,-0.0075,-0.0103,-0.0103,-0.0103,0,0,0.0055,0.0058,0.006,0.0052,0.0039,0.0025,0.0017,-0.0009,-0.0036,-0.006,-0.0074,-0.0079,-0.0096,-0.0098,-0.0099,-0.0098,-0.0084,-0.0098,-0.0111,-0.0079,-0.0077,-0.0075,-0.0043,-0.0038,-0.0102,-0.0102,-0.0102,0,0.0053,0.0054,0.0056,0.0051,0.0036,0.0019,0.0002,-0.0018,-0.0052,-0.0073,-0.0076,-0.0099,-0.0095,-0.0105,-0.0103,-0.0098,-0.008,-0.0112,-0.0079,-0.0076,-0.0074,-0.0042,-0.0037,-0.0102,-0.0102,-0.0102,-0.0102,0,0.0047,0.0046,0.0044,0.0033,0.0016,0.0002,-0.002,-0.0046,-0.0074,-0.0093,-0.0114,-0.0106,-0.012,-0.0111,-0.0107,-0.0093,-0.0084,-0.0078,-0.0079,-0.0072,-0.0039,-0.0033,-0.0102,-0.0102,-0.0102,-0.0102,0,0,0.0056,0.0044,0.0044,0.003,0.0003,-0.0011,-0.0048,-0.0081,-0.0114,-0.0128,-0.0163,-0.0148,-0.0145,-0.0145,-0.0133,-0.0107,-0.0059,-0.0088,-0.0086,-0.0058,0.0011,-0.0052,-0.0051,-0.0047,-0.0047,-0.0046,0.003,0,0.0051,0.0045,0.003,0.0001,-0.001,-0.0044,-0.0077,-0.0114,-0.0142,-0.0176,-0.0169,-0.0181,-0.0158,-0.0155,-0.0127,-0.0085,-0.0046,-0.0081,-0.0001,0.0001,-0.0056,-0.0047,-0.0044,0.0035,0.0036,0.0037,0.0038,0,0.0046,0.0045,0.003,-0.0016,-0.0027,-0.0047,-0.011,-0.0139,-0.0185,-0.0206,-0.022,-0.0225,-0.0201,-0.0171,-0.0093,-0.0118,-0.0051,-0.0009,-0.0004,-0.0062,-0.0051,0.0024,0.0049,0.0048,0.0047,0.0047,0.0046,0,0.0055,0.0033,0.0023,0.0012,-0.0032,-0.0055,-0.0085,-0.014,-0.017,-0.021,-0.0235,-0.0229,-0.0216,-0.0146,-0.0078,-0.0075,0.0011,0.0029,0.004,0.0037,0.0074,0.0071,0.0107,0.0107,0.0107,0.0107,0.0107,0,0.0052,0.0039,0.0035,0.003,0.0006,-0.0037,-0.0074,-0.0112,-0.0162,-0.0207,-0.0229,-0.0255,-0.0206,-0.0173,-0.009,-0.0026,0.0008,0.0034,0.0048,0.0071,0.0067,0.0079,0.0075,0.011,0.0109,0.0109,0.0108,0,0.0058,0.0057,0.0051,0.0026,0.0017,0.0007,-0.0045,-0.0081,-0.0127,-0.0186,-0.0197,-0.0252,-0.0232,-0.0186,-0.0085,-0.0048,0.0031,0.0059,0.007,0.0085,0.0046,0.0041,0.0075,0.0073,0.0072,0.0071,0.007,0,0.0059,0.0065,0.0069,0.0078,0.0073,0.0054,0.0025,-0.004,-0.0099,-0.0188,-0.0232,-0.0246,-0.0275,-0.0186,-0.013,-0.0014,0.001,0.0054,0.0055,0.003,0.0041,0.0038,0.0035,0.0068,0.0067,0.0067,0.0066,0,0.0069,0.0084,0.0087,0.0112,0.0105,0.0069,0.001,-0.0034,-0.014,-0.0169,-0.0257,-0.0258,-0.0261,-0.0214,-0.0145,-0.0049,0.0015,0.004,0.0044,0.0046,0.0021,0.0033,0.0031,0.0062,0.0062,0.0063,0.0063,0,0.0088,0.01,0.0122,0.0131,0.0131,0.0066,0.0031,-0.0062,-0.0122,-0.025,-0.0264,-0.0276,-0.0285,-0.0231,-0.0155,-0.0102,-0.0075,-0.0033,-0.0024,-0.0018,-0.0086,-0.0133,-0.0131,0,0,0,0,0,0.0108,0.0115,0.0129,0.0111,0.0105,0.0094,0.0003,-0.0055,-0.016,-0.0221,-0.0253,-0.026,-0.0225,-0.0214,-0.0168,-0.0167,-0.0057,-0.0111,-0.0001,0.0034,0.004,-0.0032,0,0,0,0,0,0,0.012,0.0143,0.0131,0.0098,0.0085,0.0035,-0.0012,-0.0093,-0.0153,-0.0228,-0.0206,-0.0228,-0.0183,-0.023,-0.0153,-0.0145,-0.0067,-0.01,-0.0099,0.0031,0.0036,0.0041,-0.0032,0,0,0,0,0]}]]